Lid_Strength_Index
6 6 4 3 3 2 2 1 1 1 1 1 1 2 2 1 1 1 0 0 1 2 1 1 1 1 2 1 1 1 2 2 1 2 2 2 2 2 2 3 3 2 2
7 7 7 4 3 2 2 2 1 1 1 1 1 1 1 2 1 1 1 1 1 1 1 1 1 1 1 1 1 1 2 1 1 3 3 5 4 4 3 4 4 4 4
7 6 8 7 6 4 3 2 2 2 2 1 1 2 2 2 3 2 2 1 1 1 1 1 1 2 1 1 1 1 1 3 2 2 3 6 7 5 4 4 4 4 5
7 7 6 7 7 8 4 2 2 2 2 2 2 3 3 4 3 3 3 3 3 3 3 3 4 4 4 4 4 4 3 4 5 4 3 3 3 6 6 5 5 4 5
8 7 6 6 6 6 6 3 3 3 2 2 2 2 3 3 4 4 4 5 5 5 5 5 5 5 5 6 5 5 5 4 5 4 4 5 5 4 5 7 7 6 6
8 7 7 6 6 7 6 3 4 4 4 3 3 3 3 4 4 4 4 5 6 6 6 6 6 5 6 6 6 6 6 6 5 5 5 5 5 6 7 7 5 5 7
8 8 8 8 7 7 6 4 4 5 6 6 4 4 3 4 4 4 5 6 6 6 6 6 7 7 7 6 7 6 6 6 6 5 5 5 5 4 5 4 5 6 8
10 9 8 8 8 7 6 5 5 6 6 6 6 6 5 5 5 5 5 5 5 6 8 8 8 8 8 8 8 8 7 7 6 6 6 6 6 6 6 5 5 6 6
10 10 8 8 8 7 6 5 5 6 6 6 6 6 5 6 6 6 5 6 7 8 9 9 9 9 9 9 8 8 8 7 7 7 7 7 7 7 7 6 5 5 7
10 9 8 8 8 7 6 6 6 5 5 5 6 6 6 6 7 7 8 9 9 9 10 9 10 10 10 10 10 10 9 9 8 8 9 8 8 8 8 8 7 6 6
10 10 9 8 7 6 6 6 6 6 6 6 7 7 7 7 7 7 7 8 9 10 9 10 10 10 10 10 11 11 10 10 9 9 9 9 8 10 9 9 7 8 8
9 9 9 8 7 7 7 6 6 6 7 7 7 8 8 7 8 8 8 8 9 9 9 9 10 10 11 11 11 11 11 11 11 10 10 10 9 10 11 9 10 10 9
8 8 8 7 7 7 7 7 7 7 7 8 8 8 8 9 9 9 10 9 10 10 10 10 11 12 11 12 12 12 12 12 12 12 11 9 10 10 10 10 10 10 10
8 8 8 8 7 7 6 6 6 6 7 7 7 8 8 9 9 9 9 10 9 10 10 11 11 11 12 12 12 12 12 13 12 12 11 10 10 10 11 11 11 10 10
8 8 7 8 7 7 7 6 6 6 7 7 7 8 8 8 8 9 9 10 10 10 11 12 12 11 11 10 11 11 11 10 11 11 11 10 10 9 9 11 12 11 10
8 8 7 7 7 7 6 7 7 7 7 7 7 8 8 8 9 9 10 10 11 11 11 10 10 10 9 8 7 8 9 10 10 11 12 11 11 9 9 10 10 12 12
9 9 9 9 8 7 6 7 7 8 8 8 8 8 8 9 9 10 10 10 11 11 11 11 11 11 11 8 7 7 9 10 11 12 13 13 13 13 14 11 11 11 10
8 8 8 8 8 8 7 6 7 7 8 8 8 8 8 9 10 10 10 11 12 12 12 12 11 11 10 8 8 8 12 13 13 13 14 16 16 15 15 15 16 16 15
8 8 8 8 8 8 7 7 8 7 8 8 8 8 8 9 10 11 11 12 12 12 12 12 12 12 11 9 8 11 13 13 13 14 15 15 16 13 12 15 16 15 15
8 8 8 8 8 7 7 7 7 7 7 7 8 8 8 9 10 10 11 12 12 13 12 13 12 11 11 9 8 11 14 15 15 16 15 11 14 11 12 16 16 17 16
8 8 8 9 8 8 8 7 8 8 7 7 8 8 8 9 9 11 12 12 13 12 12 12 11 12 11 12 9 10 15 16 16 16 16 15 11 11 11 13 16 16 15
7 7 8 8 8 8 8 8 8 7 8 7 8 9 9 9 9 11 12 12 12 11 12 12 12 12 12 10 10 9 11 13 16 16 16 16 11 11 11 13 14 13 14
7 7 8 8 8 8 8 8 8 8 8 7 8 8 8 9 10 11 12 11 11 11 12 12 12 13 13 13 10 10 9 10 15 16 15 13 12 11 12 12 12 12 16
6 7 8 8 9 8 7 8 8 7 7 8 8 9 9 10 10 11 11 12 12 12 12 12 13 13 13 13 14 14 12 10 12 13 15 13 13 12 14 14 14 16 16
5 7 8 8 8 8 8 8 7 7 8 8 8 9 9 9 10 10 10 10 10 10 11 12 12 13 13 13 12 13 14 14 13 15 16 15 16 16 16 17 17 16 16
5 6 7 7 7 7 7 7 7 7 8 8 8 9 9 10 10 10 11 8 9 8 8 9 10 12 10 10 10 10 10 10 10 13 16 16 16 16 16 17 17 17 16